Weather History for Crestview, FL

Change the Weather History Date:

Sunday, November 20, 2011

  Actual Average Record
Temperature  
Mean Temperature 68 °F -  
Max Temperature 75 °F - - ()
Min Temperature 60 °F - - ()
Cooling Degree Days 2    
Growing Degree Days 18 (Base 50)    
Moisture  
Dew Point 64 °F    
Average Humidity 92    
Maximum Humidity 100    
Minimum Humidity 70    
Precipitation  
Precipitation 0.00 in - - ()
Sea Level Pressure  
Sea Level Pressure 30.24 in    
Wind  
Wind Speed 4 mph (ESE)    
Max Wind Speed 14 mph    
Max Gust Speed -    
Visibility 8 miles    
Events Fog    
T = Trace of Precipitation, MM = Missing Value Source: NWS Daily Summary

Daily Weather History Graph

Daily Weather History Graph

Search for Another Location

Airport:

Trip Planner

Search our weather history database for the weather conditions in past years. The results will help you decide how hot, cold, wet, or windy it might be!

Date:

Astronomy

Nov. 20, 2011 Rise Set
Actual Time 6:16 AM CST 4:46 PM CST
Civil Twilight 5:50 AM CST 5:12 PM CST
Nautical Twilight 5:21 AM CST 5:41 PM CST
Astronomical Twilight 4:52 AM CST 6:10 PM CST
Moon 1:03 AM CST (11/20) 1:18 PM CST (11/20)
Length of Visible Light 11h 21m
Length of Day
10h 30m
Waning Crescent, 27% of the Moon is Illuminated
Nov 20
Waning Crescent
Nov 25
New
Dec 2
First Quarter
Dec 10
Full
Dec 17
Last Quarter

Hourly Weather History & Observations

Time (CST) Temp. Dew Point Humidity Pressure Visibility Wind Dir Wind Speed Gust Speed Precip Events Conditions
12:51 AM 64.4 °F 62.6 °F 94% 30.21 in 10.0 mi East 3.5 mph - N/A   Mostly Cloudy
12:55 AM 64.8 °F 62.8 °F 93% 30.21 in 10.0 mi Variable 3.5 mph - N/A   Mostly Cloudy
1:11 AM 64.4 °F 62.6 °F 94% 30.20 in 10.0 mi ESE 4.6 mph - N/A   Overcast
1:30 AM 66.2 °F 62.6 °F 88% 30.20 in 10.0 mi SE 5.8 mph - N/A   Overcast
1:55 AM 65.7 °F 63.3 °F 92% 30.20 in 10.0 mi ESE 4.6 mph - N/A   Overcast
1:59 AM 66.2 °F 62.6 °F 88% 30.20 in 10.0 mi ESE 3.5 mph - N/A   Overcast
2:26 AM 66.2 °F 64.4 °F 94% 30.20 in 10.0 mi ESE 6.9 mph - N/A   Overcast
2:55 AM 65.7 °F 63.9 °F 94% 30.20 in 10.0 mi ESE 4.6 mph - N/A   Overcast
3:55 AM 66.0 °F 64.6 °F 95% 30.20 in 10.0 mi ESE 4.6 mph - N/A   Overcast
4:45 AM 64.4 °F 62.6 °F 94% 30.22 in 8.0 mi NNW 3.5 mph - N/A   Overcast
4:55 AM 64.6 °F 63.5 °F 96% 30.22 in 8.0 mi North 3.5 mph - N/A   Overcast
5:00 AM 64.4 °F 64.4 °F 100% 30.22 in 8.0 mi North 3.5 mph - N/A   Overcast
5:07 AM 64.4 °F 64.4 °F 100% 30.22 in 8.0 mi NNE 3.5 mph - N/A   Overcast
5:25 AM 64.4 °F 64.4 °F 100% 30.22 in 6.0 mi Calm Calm - N/A   Overcast
5:55 AM 65.1 °F 64.2 °F 97% 30.22 in 10.0 mi ESE 4.6 mph - N/A   Overcast
6:02 AM 64.4 °F 64.4 °F 100% 30.22 in 10.0 mi Calm Calm - N/A   Overcast
6:10 AM 64.4 °F 64.4 °F 100% 30.23 in 10.0 mi East 4.6 mph - N/A   Overcast
6:40 AM 66.2 °F 64.4 °F 94% 30.23 in 10.0 mi East 3.5 mph - N/A   Overcast
6:55 AM 65.8 °F 64.9 °F 97% 30.24 in 10.0 mi East 3.5 mph - N/A   Overcast
7:32 AM 66.2 °F 66.2 °F 100% 30.25 in 10.0 mi East 4.6 mph - N/A   Overcast
7:55 AM 67.1 °F 66.0 °F 96% 30.26 in 6.0 mi ESE 4.6 mph - N/A   Overcast
8:48 AM 69.8 °F 66.2 °F 88% 30.28 in 10.0 mi SE 4.6 mph - N/A   Overcast
8:55 AM 69.4 °F 66.6 °F 91% 30.28 in 10.0 mi SE 4.6 mph - N/A   Overcast
9:12 AM 69.8 °F 66.2 °F 88% 30.29 in 10.0 mi SSE 4.6 mph - N/A   Overcast
9:24 AM 69.8 °F 68.0 °F 94% 30.29 in 10.0 mi SSE 6.9 mph - N/A   Overcast
9:43 AM 71.6 °F 66.2 °F 83% 30.29 in 10.0 mi SE 9.2 mph - N/A   Overcast
9:55 AM 71.6 °F 66.7 °F 85% 30.29 in 10.0 mi SSE 9.2 mph - N/A   Overcast
10:10 AM 73.4 °F 68.0 °F 83% 30.29 in 10.0 mi SSE 8.1 mph - N/A   Mostly Cloudy
10:15 AM 73.4 °F 66.2 °F 78% 30.29 in 10.0 mi SE 8.1 mph - N/A   Scattered Clouds
10:55 AM 75.4 °F 66.2 °F 73% 30.28 in 10.0 mi SSE 13.8 mph - N/A   Scattered Clouds
11:55 AM 75.7 °F 65.3 °F 70% 30.26 in 10.0 mi SE 11.5 mph - N/A   Mostly Cloudy
12:55 PM 74.1 °F 65.7 °F 75% 30.25 in 10.0 mi South 11.5 mph - N/A   Mostly Cloudy
1:55 PM 74.8 °F 65.8 °F 73% 30.24 in 10.0 mi SSE 6.9 mph - N/A   Partly Cloudy
2:55 PM 74.5 °F 66.2 °F 75% 30.23 in 10.0 mi SSE 6.9 mph - N/A   Clear
3:55 PM 73.8 °F 66.4 °F 78% 30.23 in 10.0 mi SSE 4.6 mph - N/A   Partly Cloudy
4:55 PM 71.6 °F 66.0 °F 82% 30.23 in 10.0 mi Calm Calm - N/A   Mostly Cloudy
5:55 PM 67.3 °F 64.4 °F 90% 30.24 in 10.0 mi Calm Calm - N/A   Scattered Clouds
6:55 PM 66.0 °F 64.2 °F 94% 30.25 in 10.0 mi Calm Calm - N/A   Partly Cloudy
7:55 PM 64.9 °F 63.0 °F 93% 30.26 in 10.0 mi ESE 3.5 mph - N/A   Scattered Clouds
8:55 PM 64.6 °F 62.6 °F 93% 30.26 in 10.0 mi Calm Calm - N/A   Mostly Cloudy
9:55 PM 64.0 °F 62.6 °F 95% 30.26 in 10.0 mi Calm Calm - N/A   Overcast
10:55 PM 63.1 °F 61.5 °F 94% 30.25 in 10.0 mi Calm Calm - N/A   Overcast
11:16 PM 62.6 °F 62.6 °F 100% 30.25 in 2.5 mi Calm Calm - N/A   Mostly Cloudy
11:17 PM 62.6 °F 62.6 °F 100% 30.25 in 2.0 mi Calm Calm - N/A   Mostly Cloudy
11:18 PM 62.6 °F 62.6 °F 100% 30.25 in 1.8 mi Calm Calm - N/A   Mostly Cloudy
11:20 PM 62.6 °F 62.6 °F 100% 30.25 in 1.2 mi Calm Calm - N/A   Scattered Clouds
11:22 PM 62.6 °F 60.8 °F 94% 30.25 in 1.0 mi Calm Calm - N/A   Scattered Clouds
11:26 PM 62.6 °F 60.8 °F 94% 30.25 in 0.8 mi Calm Calm - N/A   Scattered Clouds
11:32 PM 62.6 °F 60.8 °F 94% 30.24 in 1.0 mi Calm Calm - N/A   Partly Cloudy
11:41 PM 60.8 °F 60.8 °F 100% 30.24 in 0.8 mi Calm Calm - N/A   Clear
11:44 PM 60.8 °F 59.0 °F 94% 30.24 in 0.5 mi Calm Calm - N/A Fog Fog
11:49 PM 60.8 °F 60.8 °F 100% 30.24 in 0.8 mi Calm Calm - N/A   Clear
11:54 PM 60.8 °F 60.8 °F 100% 30.24 in 1.2 mi Calm Calm - N/A   Clear
11:55 PM 61.5 °F 60.3 °F 96% 30.24 in 1.0 mi Calm Calm - N/A   Clear
11:58 PM 60.8 °F 60.8 °F 100% 30.24 in 1.2 mi Calm Calm - N/A   Clear
11:59 PM 60.8 °F 60.8 °F 100% 30.24 in 1.0 mi Calm Calm - N/A   Clear